EA1GLE Weather Reports


time (UTC)temp
C
wind
direction
speed
KPH
gust
KPH
rain 1hr
cm
rain 24hr
cm
rain mn
cm
humidity
%
barometer
mb
20260510210903 7 52 3.2 4.8 0.00 0.41 0.41 98 1014.3
20260510210217 7 64 1.6 3.2 0.00 0.41 0.41 98 1014.2
20260510205403 7 70 0.0 3.2 0.00 0.41 0.41 97 1014.1
20260510203603 7 52 3.2 3.2 0.00 0.41 0.41 97 1014.1
20260510202917 7 53 3.2 4.8 0.00 0.41 0.41 96 1014.0
20260510201803 7 51 1.6 3.2 0.00 0.41 0.41 96 1013.9
20260510200903 8 51 0.0 1.6 0.00 0.41 0.41 95 1013.8
20260510200004 8 47 1.6 3.2 0.00 0.41 0.41 94 1013.6
20260510194503 8 57 1.6 3.2 0.00 0.41 0.41 93 1013.4
20260510193817 9 66 0.0 3.2 0.00 0.41 0.41 91 1013.4
20260510192703 10 56 0.0 1.6 0.00 0.41 0.41 89 1013.4
20260510191803 10 239 0.0 3.2 0.00 0.41 0.41 86 1013.2
20260510184717 11 251 4.8 9.7 0.05 0.41 0.41 80 1013.0
20260510183603 10 237 9.7 16.1 0.05 0.41 0.41 78 1013.0
20260510182703 10 240 4.8 12.9 0.05 0.41 0.41 82 1012.8
20260510181803 9 214 1.6 4.8 0.05 0.41 0.41 89 1012.7
20260510180218 8 238 16.1 30.6 0.08 0.41 0.38 91 1012.9
20260510175403 8 237 19.3 35.4 0.20 0.38 0.36 91 1013.3
20260510174503 10 233 9.7 17.7 0.20 0.38 0.36 84 1013.0
20260510173603 10 236 4.8 11.3 0.20 0.38 0.36 90 1012.8
20260510172703 10 242 6.4 11.3 0.20 0.38 0.36 91 1012.7
20260510170903 9 261 8.0 19.3 0.18 0.36 0.33 90 1012.8
20260510170218 10 248 14.5 27.4 0.15 0.33 0.33 88 1012.9
20260510165403 11 247 12.9 33.8 0.00 0.18 0.15 77 1012.4
20260510164503 13 255 11.3 22.5 0.00 0.18 0.15 72 1012.1
20260510163603 13 230 11.3 19.3 0.00 0.18 0.15 66 1012.1
20260510161803 13 221 12.9 25.7 0.00 0.18 0.15 65 1012.0
20260510161118 13 229 12.9 24.1 0.00 0.18 0.15 64 1011.5
20260510160003 13 236 16.1 37.0 0.00 0.18 0.15 64 1011.9
20260510155403 14 231 14.5 37.0 0.00 0.18 0.15 60 1011.8
20260510154718 14 221 12.9 29.0 0.00 0.18 0.15 66 1011.8
20260510153818 13 221 11.3 19.3 0.00 0.18 0.15 70 1011.7
20260510152917 13 213 11.3 17.7 0.00 0.18 0.15 69 1011.8
20260510151803 13 220 11.3 19.3 0.00 0.18 0.15 67 1012.0
20260510150903 13 220 11.3 25.7 0.00 0.18 0.15 68 1012.0
20260510150003 13 211 12.9 24.1 0.00 0.18 0.15 66 1012.1
20260510145617 13 212 14.5 24.1 0.00 0.18 0.15 66 1012.3
20260510142707 13 227 14.5 25.7 0.00 0.18 0.15 67 1012.4
20260510141804 13 213 14.5 27.4 0.00 0.20 0.15 71 1012.4
20260510140910 13 218 12.9 30.6 0.00 0.23 0.15 68 1012.6
20260510140003 12 215 14.5 27.4 0.00 0.30 0.15 70 1012.6
20260510135618 12 217 14.5 27.4 0.00 0.33 0.15 75 1012.6
20260510133603 11 208 12.9 24.1 0.00 0.33 0.15 78 1012.8
20260510132916 11 204 12.9 22.5 0.00 0.33 0.15 80 1013.0
20260510131803 11 199 8.0 19.3 0.00 0.33 0.15 82 1013.2
20260510131117 11 194 8.0 19.3 0.00 0.33 0.15 81 1013.0
20260510130005 11 194 9.7 14.5 0.00 0.33 0.15 83 1013.1
20260510124503 11 180 8.0 14.5 0.03 0.33 0.15 87 1013.0
20260510123603 10 204 8.0 14.5 0.03 0.33 0.15 88 1013.3
20260510122703 10 240 8.0 14.5 0.03 0.33 0.15 90 1013.5
20260510121811 9 243 8.0 14.5 0.05 0.33 0.15 92 1013.6
20260510120903 9 246 4.8 11.3 0.05 0.33 0.15 93 1013.6
20260510115403 8 251 8.0 17.7 0.05 0.30 0.13 93 1013.5
20260510114717 8 242 14.5 27.4 0.05 0.30 0.13 92 1013.7
20260510113603 8 243 17.7 29.0 0.05 0.30 0.13 93 1014.1
20260510112703 10 222 12.9 22.5 0.05 0.30 0.13 93 1013.8
20260510111803 10 215 12.9 19.3 0.03 0.28 0.10 92 1013.8
20260510110004 11 220 14.5 25.7 0.00 0.25 0.08 84 1013.7
20260510105403 11 222 16.1 29.0 0.00 0.25 0.08 80 1013.4
20260510104503 12 209 16.1 29.0 0.00 0.25 0.08 76 1013.2
20260510103603 12 204 12.9 22.5 0.00 0.25 0.08 78 1013.0
20260510102703 12 171 9.7 17.7 0.00 0.25 0.08 77 1012.7
20260510102019 12 189 9.7 17.7 0.00 0.25 0.08 78 1012.6
20260510100903 12 190 11.3 25.7 0.00 0.25 0.08 77 1012.3
20260510100004 13 190 11.3 22.5 0.00 0.25 0.08 74 1012.7
20260510095403 13 195 9.7 22.5 0.00 0.25 0.08 74 1012.6
20260510094503 13 185 8.0 17.7 0.00 0.25 0.08 75 1012.6
20260510092703 12 194 9.7 17.7 0.00 0.25 0.08 77 1012.9
20260510091803 12 196 11.3 19.3 0.00 0.25 0.08 78 1012.8
20260510090903 12 184 8.0 16.1 0.00 0.25 0.08 75 1012.5
20260510085403 12 192 11.3 19.3 0.00 0.25 0.08 76 1012.7
20260510083603 12 180 8.0 16.1 0.00 0.25 0.08 78 1012.8
20260510082703 12 204 9.7 14.5 0.00 0.25 0.08 80 1013.0
20260510081803 11 196 8.0 17.7 0.00 0.25 0.08 82 1013.0
20260510081118 11 202 4.8 12.9 0.00 0.25 0.08 86 1013.2
20260510075403 10 185 3.2 6.4 0.00 0.25 0.08 91 1013.3
20260510074717 10 188 4.8 11.3 0.03 0.25 0.08 92 1013.1
20260510073603 10 195 3.2 9.7 0.03 0.25 0.08 94 1013.2
20260510072703 9 214 4.8 9.7 0.03 0.25 0.08 94 1013.2
20260510071803 9 200 4.8 12.9 0.03 0.25 0.08 94 1013.1
20260510070903 9 195 6.4 12.9 0.03 0.25 0.08 94 1013.2
20260510064503 8 214 4.8 14.5 0.00 0.23 0.05 94 1013.1
20260510063603 8 215 4.8 9.7 0.00 0.23 0.05 94 1013.1
20260510062703 8 214 4.8 9.7 0.00 0.23 0.05 94 1012.9
20260510061803 8 203 4.8 11.3 0.00 0.23 0.05 94 1013.0
20260510055403 8 194 4.8 9.7 0.00 0.23 0.05 95 1012.9
20260510053603 8 198 4.8 9.7 0.00 0.23 0.05 96 1012.9
20260510052703 8 192 4.8 9.7 0.00 0.23 0.05 96 1012.9
20260510052018 8 194 4.8 9.7 0.00 0.23 0.05 96 1012.6
20260510051117 8 203 4.8 9.7 0.00 0.23 0.05 96 1012.8
20260510044503 8 212 4.8 9.7 0.00 0.23 0.05 97 1012.7
20260510042703 8 201 6.4 11.3 0.00 0.23 0.05 97 1012.9
20260510042018 8 204 4.8 11.3 0.00 0.23 0.05 97 1012.9
20260510040903 8 203 4.8 12.9 0.00 0.23 0.05 97 1012.6
20260510040003 8 198 4.8 12.9 0.00 0.23 0.05 97 1013.0
20260510035618 8 202 4.8 12.9 0.00 0.23 0.05 97 1013.0
20260510032703 7 191 3.2 4.8 0.00 0.23 0.05 98 1012.9
20260510032017 7 169 1.6 4.8 0.00 0.23 0.05 98 1013.0
20260510030903 8 202 4.8 6.4 0.00 0.23 0.05 98 1013.1
20260510030004 8 203 4.8 6.4 0.00 0.23 0.05 98 1012.7
20260510024503 8 184 3.2 9.7 0.00 0.23 0.05 98 1013.0
20260510023818 8 196 3.2 9.7 0.00 0.23 0.05 98 1013.0
20260510022703 8 197 3.2 6.4 0.00 0.23 0.05 98 1013.1
20260510021803 8 203 1.6 4.8 0.00 0.23 0.05 98 1013.1
20260510020903 8 213 3.2 4.8 0.00 0.23 0.05 97 1013.0
20260510015403 8 194 4.8 6.4 0.00 0.23 0.05 97 1013.1
20260510014718 8 192 3.2 9.7 0.00 0.23 0.05 97 1013.0
20260510013603 9 200 4.8 12.9 0.00 0.23 0.05 97 1012.8
20260510012703 9 197 3.2 9.7 0.00 0.23 0.05 97 1012.9
20260510011803 9 203 4.8 9.7 0.00 0.23 0.05 97 1013.2
20260510010903 10 230 3.2 9.7 0.00 0.23 0.05 96 1013.2
20260510005403 10 230 6.4 17.7 0.03 0.23 0.05 96 1013.4
20260510004503 10 237 4.8 16.1 0.05 0.23 0.05 96 1013.3
20260510003603 10 225 3.2 12.9 0.05 0.23 0.05 96 1013.4
20260510002703 10 223 3.2 12.9 0.05 0.23 0.05 95 1013.4
20260510001803 10 231 1.6 12.9 0.05 0.23 0.05 95 1013.3
20260509235619 10 227 4.8 11.3 0.03 0.20 0.03 92 1013.2
20260509233603 11 197 6.4 16.1 0.00 0.18 0.00 86 1013.4
20260509232703 11 183 4.8 12.9 0.00 0.18 0.00 86 1013.0
20260509231803 11 188 4.8 9.7 0.00 0.18 0.00 87 1013.3
20260509230903 10 185 1.6 4.8 0.00 0.18 0.00 88 1013.2
20260509225403 10 195 0.0 3.2 0.00 0.18 0.00 88 1012.9
20260509224503 10 174 0.0 4.8 0.00 0.18 0.00 87 1013.1
20260509223603 10 140 0.0 4.8 0.00 0.18 0.00 88 1012.8
20260509222703 11 131 0.0 4.8 0.00 0.18 0.00 87 1012.7
20260509221803 11 180 0.0 3.2 0.00 0.18 0.00 85 1012.8
20260509220903 11 189 1.6 3.2 0.00 0.18 0.00 83 1012.6
20260509215403 11 171 3.2 11.3 0.00 0.18 0.18 82 1012.5
20260509214503 11 152 1.6 11.3 0.00 0.18 0.18 82 1012.4
20260509213603 12 142 1.6 12.9 0.00 0.18 0.18 83 1012.4
20260509212703 12 169 1.6 9.7 0.00 0.18 0.18 84 1012.4
20260509212017 12 181 3.2 9.7 0.00 0.18 0.18 84 1012.2